Starlink 31161

operational
NORAD ID: 58795 Int'l Des: 2024-012 Owner: SPXS Country: US Constellation: starlink
LEOCIRCULAR

Starlink 31161について

説明を読み込み中...

リアルタイム位置

3D地球を読み込み中...

次回通過

高度履歴

Altitude vs Time

uPlot chart will show altitude changes over time

軌道要素

1 58795U 24012J 25305.63282512 -.00000622 00000-0 -13089-4 0 9994
2 58795 42.9987 168.2429 0001049 278.7736 81.2997 15.27569597101656
Epoch: Nov 1, 2025 • Age: 7 hours

現在のステータス

高度 484.6 km
速度 7.63 km/s
衛星直下点 32.57°N, 157.14°W
打ち上げ日 Jan 15, 2024
運用期間 1.7 years
タイプ internet

技術仕様

分類 Payload
質量 730.00 kg
乾燥質量 700.00 kg
総質量 730.00 kg
長さ 0.30 m
直径 4.10 m
スパン 29.00 m
形状 Box + pan
製造者 SPXS
バスタイプ Starlink V2M
フェーズステータス In Orbit
所有者/国 SPXS/US

大規模コンステレーション

Loading constellations...